TimeCEST,TemperatureF,Dew PointF,Humidity,Sea Level PressureIn,VisibilityMPH,Wind Direction,Wind SpeedMPH,Gust SpeedMPH,PrecipitationIn,Events,Conditions,WindDirDegrees,DateUTC
12:20 AM,50.0,48.2,94,30.09,6.2,Variable,2.3,-,N/A,,Unknown,0,2013-06-05 22:20:00
12:50 AM,50.0,48.2,94,30.09,6.2,South,3.5,-,N/A,,Unknown,170,2013-06-05 22:50:00
1:20 AM,50.0,48.2,94,30.09,6.2,Variable,1.2,-,N/A,,Unknown,0,2013-06-05 23:20:00
1:50 AM,50.0,48.2,94,30.09,6.2,Variable,2.3,-,N/A,,Unknown,0,2013-06-05 23:50:00
2:00 AM,49,48,95,30.11,8,,2.2,,,,,,2013-06-06 00:00:00
2:20 AM,48.2,46.4,93,30.09,6.2,South,2.3,-,N/A,,Unknown,170,2013-06-06 00:20:00
2:50 AM,46.4,46.4,100,30.09,6.2,Variable,2.3,-,N/A,,Unknown,0,2013-06-06 00:50:00
3:20 AM,46.4,44.6,93,30.09,6.2,South,5.8,-,N/A,,Mist,170,2013-06-06 01:20:00
3:50 AM,44.6,44.6,100,30.09,-9999.0,South,4.6,-,N/A,,Clear,180,2013-06-06 01:50:00
4:20 AM,46.4,46.4,100,30.09,-9999.0,Variable,2.3,-,N/A,,Clear,0,2013-06-06 02:20:00
4:50 AM,46.4,44.6,93,30.09,-9999.0,Variable,1.2,-,N/A,,Clear,0,2013-06-06 02:50:00
5:00 AM,46,45,96,30.12,22,,2.2,,,,Scattered Clouds,,2013-06-06 03:00:00
5:20 AM,44.6,44.6,100,30.09,6.2,Variable,1.2,-,N/A,Fog,Shallow Fog,0,2013-06-06 03:20:00
5:50 AM,44.6,44.6,100,30.09,6.2,Variable,1.2,-,N/A,Fog,Shallow Fog,0,2013-06-06 03:50:00
6:20 AM,48.2,46.4,93,30.09,-9999.0,Variable,2.3,-,N/A,,Clear,0,2013-06-06 04:20:00
6:50 AM,50.0,48.2,94,30.09,-9999.0,South,3.5,-,N/A,,Clear,180,2013-06-06 04:50:00
7:20 AM,51.8,50.0,94,30.09,6.2,Variable,1.2,-,N/A,,Partly Cloudy,0,2013-06-06 05:20:00
7:50 AM,55.4,50.0,82,30.09,6.2,Variable,2.3,-,N/A,,Partly Cloudy,0,2013-06-06 05:50:00
8:00 AM,55,51,81,30.12,19,,2.2,,,,Scattered Clouds,,2013-06-06 06:00:00
8:20 AM,57.2,51.8,82,30.12,6.2,Variable,2.3,-,N/A,,Partly Cloudy,0,2013-06-06 06:20:00
8:50 AM,60.8,51.8,72,30.12,6.2,Variable,2.3,-,N/A,,Partly Cloudy,0,2013-06-06 06:50:00
9:20 AM,62.6,51.8,68,30.12,6.2,SSE,3.5,-,N/A,,Partly Cloudy,160,2013-06-06 07:20:00
9:50 AM,64.4,51.8,64,30.12,6.2,Variable,2.3,-,N/A,,Partly Cloudy,0,2013-06-06 07:50:00
10:20 AM,64.4,51.8,64,30.12,6.2,NW,4.6,-,N/A,,Partly Cloudy,320,2013-06-06 08:20:00
10:50 AM,66.2,53.6,64,30.12,6.2,Variable,5.8,-,N/A,,Partly Cloudy,0,2013-06-06 08:50:00
11:00 AM,67,53,50,30.09,19,,6.7,,,,Scattered Clouds,,2013-06-06 09:00:00
11:20 AM,68.0,51.8,56,30.12,6.2,NNE,6.9,-,N/A,,Partly Cloudy,20,2013-06-06 09:20:00
11:50 AM,69.8,51.8,53,30.09,6.2,NE,8.1,-,N/A,,Partly Cloudy,40,2013-06-06 09:50:00
12:20 PM,69.8,51.8,53,30.09,6.2,Variable,6.9,-,N/A,,Partly Cloudy,0,2013-06-06 10:20:00
12:50 PM,69.8,51.8,53,30.09,6.2,ENE,8.1,-,N/A,,Scattered Clouds,70,2013-06-06 10:50:00
1:20 PM,69.8,50.0,49,30.09,6.2,ENE,8.1,-,N/A,,Scattered Clouds,60,2013-06-06 11:20:00
1:50 PM,71.6,51.8,50,30.09,6.2,Variable,4.6,-,N/A,,Scattered Clouds,0,2013-06-06 11:50:00
2:00 PM,72,52,38,30.06,22,,4.5,,,,Scattered Clouds,,2013-06-06 12:00:00
2:20 PM,69.8,51.8,53,30.09,6.2,NNE,10.4,-,N/A,,Scattered Clouds,20,2013-06-06 12:20:00
2:50 PM,69.8,51.8,53,30.09,6.2,North,10.4,-,N/A,,Scattered Clouds,10,2013-06-06 12:50:00
3:20 PM,71.6,51.8,50,30.09,6.2,NNE,8.1,-,N/A,,Partly Cloudy,20,2013-06-06 13:20:00
3:50 PM,71.6,51.8,50,30.09,6.2,NNE,6.9,-,N/A,,Scattered Clouds,20,2013-06-06 13:50:00
4:20 PM,73.4,51.8,47,30.09,6.2,NNE,6.9,-,N/A,,Scattered Clouds,30,2013-06-06 14:20:00
4:50 PM,71.6,50.0,46,30.06,6.2,NNE,5.8,-,N/A,,Scattered Clouds,20,2013-06-06 14:50:00
5:00 PM,72,50,35,30.04,22,NNE,6.7,,,,Scattered Clouds,20,2013-06-06 15:00:00
5:20 PM,71.6,51.8,50,30.06,6.2,NE,8.1,-,N/A,,Scattered Clouds,40,2013-06-06 15:20:00
5:50 PM,71.6,50.0,46,30.06,6.2,North,6.9,-,N/A,,Scattered Clouds,360,2013-06-06 15:50:00
6:20 PM,71.6,48.2,43,30.06,6.2,NNE,6.9,-,N/A,,Scattered Clouds,20,2013-06-06 16:20:00
6:50 PM,71.6,51.8,50,30.06,6.2,NNE,10.4,-,N/A,,Partly Cloudy,30,2013-06-06 16:50:00
7:20 PM,68.0,51.8,56,30.06,6.2,NNE,8.1,-,N/A,,Partly Cloudy,20,2013-06-06 17:20:00
7:50 PM,69.8,51.8,53,30.06,6.2,NNE,9.2,-,N/A,,Partly Cloudy,20,2013-06-06 17:50:00
8:00 PM,69,52,44,30.04,22,NNE,8.9,,,,Scattered Clouds,20,2013-06-06 18:00:00
8:20 PM,68.0,53.6,60,30.06,6.2,NNE,6.9,-,N/A,,Partly Cloudy,30,2013-06-06 18:20:00
8:50 PM,66.2,53.6,64,30.09,6.2,NNE,5.8,-,N/A,,Partly Cloudy,30,2013-06-06 18:50:00
9:20 PM,64.4,51.8,64,30.09,6.2,NNE,5.8,-,N/A,,Partly Cloudy,20,2013-06-06 19:20:00
9:50 PM,62.6,53.6,72,30.09,6.2,NE,5.8,-,N/A,,Partly Cloudy,40,2013-06-06 19:50:00
10:20 PM,59.0,53.6,82,30.12,6.2,South,4.6,-,N/A,,Partly Cloudy,170,2013-06-06 20:20:00
10:50 PM,57.2,53.6,88,30.12,6.2,Variable,1.2,-,N/A,,Partly Cloudy,0,2013-06-06 20:50:00
11:00 PM,58,53,80,30.12,22,,2.2,,,,Scattered Clouds,,2013-06-06 21:00:00
11:20 PM,57.2,53.6,88,30.12,6.2,SSW,3.5,-,N/A,,Partly Cloudy,210,2013-06-06 21:20:00
11:50 PM,55.4,51.8,88,30.12,6.2,SSE,4.6,-,N/A,,Unknown,160,2013-06-06 21:50:00